Temperature
3 3 3 3 3 3 3 4 5 5 5 5 4 3 3 2 2 2 2 2 2 2 3 3 4 4 5 5 5 6 6 6 6 6 6 6 6 6 6 6 6 6 6 6
2 2 2 2 2 3 3 3 3 4 4 4 3 2 2 1 1 1 1 1 1 2 2 3 3 4 4 4 5 5 5 5 5 5 5 5 5 5 5 5 5 5 5 5
3 2 2 3 3 2 2 2 3 3 4 2 2 1 1 0 0 0 0 0 0 1 2 2 2 3 3 4 4 4 4 4 5 5 5 5 5 5 4 4 4 4 4 4
2 2 3 4 2 1 2 2 2 2 2 1 1 0 0 -0 -0 -1 -0 -0 0 1 1 2 2 2 3 3 3 4 4 4 4 4 4 4 4 4 4 3 3 3 3 3
2 2 4 3 2 1 1 2 1 1 1 1 -0 0 1 -0 -1 -1 -1 -1 -0 0 1 1 1 2 2 2 3 3 3 3 3 3 3 3 3 3 3 3 3 3 3 3
1 2 3 4 1 -0 1 2 1 0 0 -0 -0 2 2 -0 -1 -1 -1 -1 -0 0 0 0 1 1 1 2 2 2 2 2 2 2 2 2 2 2 2 2 2 2 2 2
1 2 3 2 -0 -0 2 3 0 -1 -1 -1 -1 -0 -1 -1 -1 -2 -2 -1 -1 -0 -0 -0 0 0 1 1 1 1 1 1 1 1 1 1 1 1 1 1 1 1 1 1
0 1 2 0 -1 1 2 -0 -1 -1 -1 -2 -2 -2 -2 -2 -2 -2 -2 -2 -1 -1 -1 -1 -0 -0 0 0 0 0 1 1 1 1 1 1 1 1 1 0 0 0 0 0
1 2 1 -1 -1 -1 -1 -1 -1 -2 -2 -2 -2 -3 -3 -3 -3 -2 -2 -2 -2 -2 -1 -1 -1 -1 -1 -1 -0 -0 -0 -0 -0 -0 -0 -0 -0 -0 -0 -0 -0 -0 -0 -0
-1 -0 -1 -1 -1 -1 -1 -2 -2 -2 -2 -2 -3 -3 -3 -3 -3 -3 -3 -3 -3 -2 -2 -2 -2 -2 -1 -1 -1 -1 -1 -1 -1 -1 -1 -1 -1 -1 -1 -1 -1 -1 -1 -1
-2 -1 -1 -1 -1 -1 -2 -2 -2 -3 -3 -3 -3 -3 -3 -3 -3 -3 -3 -3 -3 -3 -3 -3 -3 -3 -2 -2 -2 -2 -2 -2 -2 -2 -2 -2 -1 -1 -1 -1 -1 -1 -1 -1
0 -0 -1 -0 -1 -1 -2 -2 -3 -3 -3 -3 -3 -3 -3 -4 -4 -4 -4 -3 -4 -4 -4 -3 -3 -3 -3 -3 -3 -3 -3 -2 -2 -2 -2 -2 -2 -2 -2 -2 -2 -2 -2 -2
-1 -1 -2 -2 -2 -2 -2 -2 -3 -3 -3 -3 -3 -3 -4 -4 -4 -4 -4 -4 -4 -4 -4 -4 -4 -4 -4 -4 -3 -3 -3 -3 -3 -3 -3 -3 -2 -2 -3 -3 -3 -3 -3 -3
-2 -2 -3 -2 -2 -2 -3 -3 -3 -3 -3 -3 -4 -4 -4 -4 -4 -4 -4 -4 -4 -4 -4 -4 -4 -4 -4 -4 -4 -4 -4 -3 -3 -3 -3 -3 -3 -3 -3 -3 -3 -4 -4 -4
-2 -3 -3 -3 -3 -3 -3 -3 -3 -4 -4 -4 -4 -4 -4 -4 -4 -4 -5 -5 -5 -5 -5 -5 -5 -5 -5 -5 -4 -4 -4 -4 -4 -4 -4 -4 -4 -4 -4 -4 -4 -4 -4 -4
-3 -3 -3 -3 -3 -3 -4 -4 -4 -4 -4 -4 -4 -4 -4 -4 -5 -5 -5 -5 -5 -5 -5 -5 -5 -5 -5 -5 -5 -5 -4 -4 -4 -4 -4 -4 -4 -4 -4 -5 -5 -5 -5 -5
-4 -4 -4 -4 -4 -4 -4 -4 -4 -4 -4 -4 -4 -4 -4 -5 -5 -5 -5 -5 -5 -5 -5 -6 -6 -6 -6 -5 -5 -5 -5 -5 -5 -5 -5 -5 -5 -5 -5 -5 -5 -5 -5 -5
-3 -3 -3 -3 -3 -4 -4 -4 -4 -4 -4 -4 -4 -4 -5 -5 -5 -5 -5 -5 -5 -6 -6 -6 -6 -6 -6 -6 -6 -6 -6 -6 -6 -6 -6 -6 -6 -6 -6 -6 -6 -6 -6 -6
-3 -3 -3 -3 -3 -3 -4 -4 -4 -4 -4 -4 -4 -5 -5 -5 -5 -5 -5 -6 -6 -6 -6 -6 -6 -6 -6 -6 -6 -6 -6 -6 -6 -6 -6 -6 -6 -6 -6 -6 -6 -6 -6 -7
-3 -3 -3 -3 -3 -4 -4 -4 -4 -4 -5 -5 -5 -5 -5 -5 -5 -5 -6 -6 -6 -6 -6 -6 -6 -6 -6 -6 -6 -6 -6 -6 -6 -7 -7 -7 -7 -7 -7 -7 -7 -7 -7 -7
-3 -3 -3 -3 -3 -4 -4 -4 -4 -4 -5 -5 -5 -5 -5 -5 -5 -6 -6 -6 -6 -6 -6 -6 -6 -7 -7 -7 -7 -7 -7 -7 -7 -7 -7 -7 -7 -7 -7 -7 -7 -7 -8 -8
-3 -3 -3 -4 -4 -4 -4 -4 -4 -5 -5 -5 -5 -5 -6 -6 -6 -6 -6 -6 -6 -6 -7 -7 -7 -7 -7 -7 -7 -7 -7 -7 -7 -7 -7 -8 -8 -8 -8 -8 -8 -8 -8 -8
-3 -3 -4 -4 -4 -4 -4 -5 -5 -5 -5 -5 -5 -6 -6 -6 -6 -6 -6 -6 -7 -7 -7 -7 -7 -7 -7 -7 -7 -7 -7 -8 -8 -8 -8 -8 -8 -8 -8 -8 -8 -8 -8 -9
-4 -4 -4 -4 -4 -5 -5 -5 -5 -5 -5 -5 -6 -6 -6 -6 -6 -6 -7 -7 -7 -7 -7 -7 -7 -7 -8 -8 -8 -8 -8 -8 -8 -8 -8 -8 -8 -9 -9 -9 -9 -9 -9 -9
-4 -4 -4 -4 -5 -5 -5 -5 -5 -5 -6 -6 -6 -6 -6 -6 -7 -7 -7 -7 -7 -7 -7 -7 -8 -8 -8 -8 -8 -8 -8 -8 -8 -9 -9 -9 -9 -9 -9 -9 -9 -9 -9 -9
-4 -4 -4 -5 -5 -5 -5 -5 -6 -6 -6 -6 -6 -6 -7 -7 -7 -7 -7 -7 -7 -8 -8 -8 -8 -8 -8 -8 -8 -8 -8 -9 -9 -9 -9 -9 -9 -9 -9 -9 -9 -9 -9 -9
-4 -4 -5 -5 -5 -5 -5 -6 -6 -6 -6 -6 -6 -7 -7 -7 -7 -7 -8 -8 -8 -8 -8 -8 -8 -8 -8 -8 -8 -9 -9 -9 -9 -9 -9 -9 -9 -9 -9 -9 -9 -9 -9 -9
Wind_Speed
7 7 7 9 10 9 9 10 9 10 12 12 10 9 10 9 10 10 10 10 9 9 8 8 7 7 5 4 2 1 1 2 2 3 3 4 4 4 4 4 4 5 5 5
6 7 7 9 10 10 10 10 11 12 12 8 7 7 8 9 9 9 10 10 10 9 9 8 8 7 6 5 3 1 1 1 2 3 3 3 3 4 4 4 4 4 5 5
4 5 6 7 6 6 6 7 8 9 7 6 6 7 8 8 8 9 9 9 9 9 8 8 7 6 5 5 3 1 1 1 2 3 3 3 3 3 4 4 4 4 4 4
3 3 5 2 1 3 6 7 7 8 8 7 7 8 7 6 7 9 9 9 9 8 8 8 7 6 5 4 2 1 1 2 2 3 3 3 3 3 3 3 3 4 4 4
2 4 8 4 2 2 4 7 5 6 6 7 7 6 5 5 7 8 8 8 8 8 7 7 7 6 4 3 2 1 1 1 2 2 3 3 3 3 3 3 3 3 3 3
3 4 6 2 1 0 2 6 2 4 5 5 5 5 5 6 8 8 8 7 7 7 7 6 6 5 4 4 2 1 1 1 1 2 3 3 2 2 2 3 3 3 3 3
6 6 7 2 1 2 4 4 1 4 5 5 5 6 7 7 7 6 7 7 7 6 6 6 6 5 4 4 3 2 2 1 1 1 2 2 2 2 3 3 3 3 3 2
5 6 6 2 3 4 4 3 3 5 5 6 7 7 6 6 6 6 6 6 6 6 6 6 6 5 4 4 4 3 2 2 2 1 1 2 3 2 3 4 4 3 3 2
7 6 2 4 5 5 4 5 5 6 6 6 7 7 6 6 6 6 6 6 5 5 5 6 5 4 3 3 3 3 2 2 2 2 2 2 2 3 3 3 3 2 2 2
7 9 8 8 9 7 6 7 6 6 6 6 6 6 6 5 5 5 5 5 5 5 5 5 5 4 3 3 2 2 2 2 2 2 2 2 2 1 2 2 2 2 2 2
8 9 8 8 8 8 7 6 6 5 6 6 6 6 5 5 5 4 4 4 4 4 4 5 5 5 4 3 2 2 2 1 1 1 1 1 1 1 0 1 2 2 2 2
8 6 6 6 6 6 7 7 6 6 6 5 6 6 5 4 4 3 3 3 3 4 4 4 4 4 4 3 2 1 1 1 0 1 1 1 1 1 2 1 1 0 1 2
7 6 7 7 6 5 6 7 6 6 7 6 5 5 4 4 3 3 3 3 3 3 4 4 4 4 4 4 2 1 0 0 0 0 1 1 1 1 1 2 2 1 1 1
7 4 5 6 6 5 5 6 5 5 5 5 4 3 3 3 3 2 3 3 3 3 3 3 3 4 4 3 2 1 1 1 0 0 1 1 1 1 1 1 0 0 0 0
8 8 7 6 6 5 4 4 3 4 4 4 3 3 3 3 3 3 3 2 2 2 2 2 2 3 4 3 2 1 1 0 0 0 0 1 1 1 1 1 1 1 1 0
6 6 7 7 7 6 4 4 5 5 4 4 4 4 3 3 3 2 2 2 2 2 2 2 2 3 3 2 1 1 0 1 0 0 0 1 1 0 0 1 1 1 1 1
5 6 7 8 8 8 7 7 6 6 5 5 4 4 3 2 2 2 2 2 2 2 2 2 2 2 2 2 2 1 0 0 0 0 0 0 1 1 1 1 1 1 1 2
10 9 9 8 8 8 7 7 6 6 5 5 3 3 3 3 3 3 3 2 1 2 2 2 2 2 1 1 1 1 0 0 0 0 1 1 1 1 1 1 1 1 1 1
9 8 8 7 6 6 6 6 6 5 5 4 4 4 4 4 4 3 2 2 2 3 3 2 2 1 1 1 1 1 1 1 1 1 1 1 1 1 1 1 1 1 1 1
7 7 6 5 5 5 5 5 4 4 4 4 4 3 3 3 3 2 2 3 3 2 2 1 1 1 1 1 1 1 1 1 1 1 1 1 1 1 1 1 1 1 1 1
7 6 5 5 5 4 5 5 4 4 4 4 4 4 4 3 2 2 2 3 3 2 1 2 1 1 1 1 2 1 1 1 1 1 1 1 1 1 0 1 1 1 1 1
5 5 5 5 4 4 3 4 4 4 4 3 3 3 3 2 2 2 3 3 2 2 1 1 1 1 1 1 1 1 1 1 1 1 1 1 1 1 1 1 1 1 1 2
4 5 5 5 4 3 2 3 4 4 4 4 4 4 3 3 2 2 2 2 1 2 1 1 1 1 2 1 1 1 1 1 1 1 1 1 1 1 1 1 1 2 2 2
4 4 4 3 3 3 3 3 3 2 3 3 3 3 3 2 2 2 2 1 1 2 1 1 2 2 2 1 1 1 1 1 0 0 0 0 1 1 1 1 2 2 2 3
4 3 4 4 4 3 3 3 2 2 2 2 2 2 2 2 2 2 1 1 2 2 1 1 2 2 1 1 1 1 1 1 1 0 0 1 1 1 1 2 2 2 2 3
4 4 3 4 3 2 2 3 2 2 2 2 1 1 1 1 1 1 1 1 2 2 1 1 1 1 1 1 1 1 1 0 0 0 1 1 1 1 2 2 3 3 3 3
3 2 2 2 2 3 3 3 3 3 3 3 2 1 1 1 1 1 1 1 2 1 1 1 1 1 1 1 1 1 0 0 0 1 1 1 1 2 2 3 3 3 3 4
Wind_Direction
265 274 275 274 276 269 253 250 254 266 274 287 304 312 320 327 333 338 342 344 346 347 346 349 350 348 345 344 344 347 127 135 161 164 161 154 153 158 158 163 173 175 174 180
269 265 274 275 273 266 259 257 254 265 274 291 308 314 321 327 332 337 339 339 341 344 345 346 345 341 339 340 345 4 98 119 138 137 134 140 148 149 148 153 159 164 170 176
270 294 289 268 254 240 246 247 246 256 273 304 306 308 315 321 327 333 334 334 336 336 336 336 334 333 332 332 342 5 76 110 124 125 126 130 136 140 147 152 152 156 162 162
279 293 255 266 122 245 253 256 251 264 282 289 290 294 301 311 325 330 330 329 330 331 331 332 333 338 337 334 343 5 99 121 124 124 122 123 133 141 146 150 152 154 158 159
234 261 274 269 228 232 247 269 253 260 279 296 306 294 290 322 326 322 322 323 324 327 328 330 335 338 339 345 356 25 77 101 115 127 129 132 138 149 152 148 145 146 151 154
223 247 257 282 116 271 250 264 222 253 279 302 305 287 301 326 321 321 325 327 329 330 333 337 338 337 339 348 359 14 18 61 98 124 133 139 148 150 146 141 141 140 141 149
230 245 264 280 212 184 234 289 327 271 277 280 274 282 306 312 315 319 323 328 332 334 336 336 339 342 343 346 351 355 21 54 63 92 122 137 141 141 136 133 132 132 133 138
208 228 254 160 165 218 271 325 287 280 278 271 273 286 297 303 310 317 323 329 334 336 338 340 344 347 348 350 356 10 38 58 66 77 98 121 132 134 139 141 140 138 136 133
213 233 297 194 229 264 283 274 280 280 281 271 273 279 288 295 304 312 321 326 330 334 337 342 350 356 3 359 9 27 49 60 72 80 88 105 122 137 145 150 150 151 155 166
251 258 261 259 260 267 268 271 280 278 273 265 269 276 282 291 301 310 319 324 327 333 339 341 348 356 358 357 13 40 56 55 65 78 78 84 101 130 155 162 163 167 179 192
249 266 277 261 249 257 265 271 278 279 270 261 262 268 273 283 292 301 311 316 321 327 330 334 343 350 354 360 20 41 51 57 69 83 94 88 83 80 163 205 197 196 206 210
243 244 245 268 270 258 253 256 261 265 269 265 258 261 268 274 283 290 298 308 316 323 327 332 340 345 347 351 6 40 51 51 73 115 118 125 113 64 45 54 58 354 261 252
252 262 262 273 275 256 249 256 259 256 255 259 259 256 257 266 274 280 289 299 302 309 318 328 338 341 343 346 354 9 10 354 76 137 151 160 164 151 106 68 84 76 78 315
243 248 259 254 260 256 253 259 259 258 257 257 255 252 251 258 268 274 283 290 293 299 309 321 334 335 338 341 351 2 3 14 10 201 189 191 193 195 182 173 172 21 43 355
230 233 245 257 260 255 250 251 254 258 261 262 254 247 244 251 261 273 283 290 289 294 304 318 326 327 335 341 349 355 354 351 2 194 178 196 189 188 196 205 214 250 298 303
234 240 242 245 248 247 243 242 246 252 252 250 249 250 250 251 258 271 280 277 274 282 294 301 307 317 328 336 339 342 23 68 4 211 177 171 171 182 207 221 238 260 290 316
216 233 238 245 245 244 240 238 239 244 241 240 244 249 251 253 262 269 273 270 266 269 275 275 287 303 310 316 308 301 302 118 94 161 185 196 208 219 233 245 257 271 286 299
230 236 233 235 235 236 239 240 239 237 235 236 236 230 229 232 244 256 262 266 274 291 289 283 283 293 299 305 294 272 248 243 209 192 205 212 221 221 222 232 245 261 277 285
236 239 239 236 229 225 229 232 230 227 226 218 211 218 229 239 245 250 248 240 248 269 282 287 280 281 287 284 277 232 216 197 177 188 197 200 216 205 214 231 246 259 270 285
237 237 233 231 226 222 224 224 218 217 215 207 207 215 230 242 243 238 232 241 252 261 265 270 264 257 257 237 224 213 190 179 180 185 196 204 206 215 231 251 259 273 286 294
231 228 222 222 222 220 218 213 208 210 207 199 202 214 228 239 235 223 226 250 267 257 244 236 241 242 221 192 193 189 176 176 183 194 201 204 207 214 234 262 274 284 291 295
223 215 215 213 211 216 212 203 201 200 196 198 205 211 217 228 228 229 237 250 265 237 229 229 230 202 156 155 161 157 157 158 171 191 202 204 212 224 243 265 277 284 286 288
219 212 207 205 203 199 195 197 195 193 195 200 204 210 217 225 224 227 249 259 260 227 197 181 170 155 146 139 133 140 148 157 168 178 198 214 232 249 261 273 278 281 285 288
208 202 198 183 163 171 195 206 196 196 197 206 212 214 215 222 237 243 265 259 218 198 183 173 162 151 141 131 133 133 133 136 143 169 197 218 242 260 264 269 276 282 282 284
196 187 177 172 182 200 203 186 174 183 190 205 218 219 220 228 235 241 235 221 197 181 183 174 156 144 139 140 144 148 157 168 175 191 234 247 261 268 273 275 275 278 279 281
193 195 198 201 200 193 185 184 194 198 197 207 226 222 217 223 226 213 186 180 178 172 164 153 152 149 150 150 154 165 180 213 242 253 257 271 276 279 280 281 284 281 281 282
181 185 182 194 200 193 189 192 197 201 202 204 214 204 190 179 171 169 163 155 153 156 151 140 142 146 150 152 155 167 185 215 240 251 259 270 279 283 284 283 284 285 283 280
Height
1514 1513 1512 1510 1508 1506 1504 1499 1493 1487 1487 1485 1487 1487 1486 1483 1480 1477 1474 1472 1469 1467 1465 1463 1462 1461 1460 1459 1460 1459 1460 1460 1462 1465 1467 1469 1472 1475 1477 1479 1481 1483 1485 1487
1513 1511 1510 1508 1504 1503 1501 1499 1495 1492 1489 1489 1489 1488 1486 1483 1481 1477 1475 1472 1469 1466 1464 1463 1461 1460 1459 1458 1457 1457 1457 1458 1460 1462 1464 1466 1468 1471 1473 1475 1477 1479 1481 1483
1505 1508 1506 1498 1498 1500 1499 1497 1495 1490 1489 1489 1489 1487 1485 1483 1481 1477 1475 1472 1469 1466 1464 1462 1461 1459 1458 1457 1456 1456 1456 1457 1458 1459 1461 1463 1466 1468 1470 1472 1474 1476 1478 1480
1509 1508 1503 1493 1498 1498 1497 1494 1494 1492 1490 1490 1488 1486 1484 1482 1480 1477 1474 1471 1468 1466 1463 1462 1460 1458 1457 1456 1455 1455 1455 1455 1456 1457 1459 1461 1464 1465 1467 1469 1471 1473 1475 1477
1510 1503 1492 1492 1496 1498 1497 1491 1491 1490 1489 1488 1487 1484 1481 1480 1478 1477 1474 1471 1468 1465 1463 1461 1459 1457 1456 1455 1454 1454 1454 1454 1455 1456 1457 1460 1462 1463 1466 1467 1468 1470 1472 1474
1509 1502 1493 1487 1495 1496 1497 1487 1487 1488 1488 1487 1486 1481 1479 1478 1476 1474 1472 1469 1467 1464 1462 1460 1458 1457 1455 1454 1454 1453 1454 1454 1454 1455 1456 1458 1461 1463 1464 1465 1466 1468 1470 1471
1507 1501 1488 1492 1495 1495 1492 1483 1487 1486 1486 1486 1485 1483 1480 1477 1475 1473 1470 1468 1466 1463 1461 1459 1458 1456 1454 1454 1453 1453 1453 1453 1454 1455 1456 1458 1459 1461 1462 1463 1465 1466 1467 1469
1505 1501 1491 1492 1493 1491 1486 1486 1485 1484 1484 1483 1481 1480 1477 1475 1473 1471 1469 1466 1464 1462 1460 1458 1457 1455 1453 1453 1452 1452 1452 1453 1453 1455 1456 1457 1459 1460 1461 1462 1463 1464 1465 1467
1496 1490 1488 1489 1487 1486 1485 1485 1483 1482 1480 1479 1478 1476 1475 1473 1471 1469 1467 1465 1463 1461 1459 1457 1456 1454 1453 1452 1452 1451 1451 1452 1453 1454 1455 1456 1458 1459 1460 1461 1462 1462 1464 1465
1494 1487 1486 1485 1484 1483 1482 1481 1480 1479 1478 1476 1475 1473 1472 1470 1469 1467 1465 1463 1462 1460 1458 1456 1455 1454 1453 1452 1451 1451 1451 1452 1452 1453 1454 1456 1457 1457 1458 1459 1460 1461 1461 1462
1489 1484 1483 1480 1480 1480 1479 1478 1476 1476 1475 1473 1472 1471 1469 1468 1467 1465 1464 1462 1461 1459 1457 1455 1454 1453 1452 1451 1451 1450 1450 1451 1452 1453 1454 1454 1455 1456 1457 1458 1459 1459 1459 1460
1479 1479 1479 1477 1476 1476 1475 1474 1473 1472 1471 1470 1469 1468 1467 1466 1465 1463 1462 1461 1459 1457 1456 1454 1453 1452 1451 1451 1450 1450 1450 1450 1451 1452 1452 1453 1454 1455 1455 1456 1456 1457 1457 1457
1476 1475 1475 1473 1473 1473 1472 1471 1470 1469 1468 1467 1466 1465 1464 1463 1462 1461 1460 1459 1458 1456 1455 1453 1452 1451 1451 1450 1450 1449 1449 1449 1450 1450 1451 1452 1452 1452 1453 1454 1454 1454 1454 1454
1471 1472 1470 1469 1469 1469 1468 1468 1467 1466 1465 1464 1463 1462 1462 1461 1460 1459 1458 1457 1456 1454 1453 1452 1451 1450 1450 1449 1449 1448 1448 1449 1449 1449 1449 1450 1450 1451 1451 1451 1451 1451 1451 1451
1466 1467 1466 1465 1465 1465 1464 1464 1463 1462 1461 1461 1460 1459 1459 1458 1457 1456 1455 1454 1453 1452 1451 1450 1449 1449 1448 1448 1447 1447 1447 1447 1447 1448 1448 1448 1449 1449 1449 1449 1449 1449 1449 1449
1461 1461 1461 1461 1460 1460 1460 1460 1459 1459 1458 1458 1457 1457 1456 1455 1454 1454 1453 1452 1451 1449 1449 1448 1447 1447 1446 1446 1446 1446 1445 1446 1446 1446 1446 1446 1446 1447 1447 1447 1447 1446 1446 1446
1457 1456 1455 1455 1455 1455 1455 1455 1455 1455 1455 1454 1454 1454 1453 1453 1452 1451 1450 1449 1448 1447 1447 1446 1446 1445 1445 1445 1445 1444 1444 1444 1444 1444 1444 1444 1444 1444 1445 1445 1445 1444 1444 1444
1451 1451 1450 1450 1450 1450 1451 1451 1451 1451 1451 1451 1451 1451 1450 1450 1449 1448 1448 1447 1446 1445 1445 1444 1444 1444 1443 1443 1443 1443 1442 1442 1442 1442 1442 1443 1442 1442 1443 1443 1442 1442 1441 1441
1446 1446 1446 1446 1447 1447 1447 1447 1448 1448 1448 1448 1448 1448 1448 1447 1447 1446 1445 1444 1443 1443 1443 1442 1442 1442 1441 1441 1441 1441 1441 1441 1441 1441 1441 1441 1441 1441 1440 1440 1440 1440 1439 1439
1441 1441 1442 1442 1443 1443 1443 1444 1444 1445 1445 1445 1445 1445 1445 1444 1444 1443 1442 1441 1441 1441 1441 1440 1440 1440 1440 1440 1440 1439 1439 1439 1439 1439 1439 1439 1439 1438 1438 1438 1438 1438 1437 1437
1437 1438 1438 1439 1439 1440 1440 1440 1441 1441 1441 1442 1442 1442 1442 1442 1442 1441 1440 1439 1439 1439 1439 1439 1438 1438 1438 1438 1438 1438 1438 1438 1438 1438 1437 1437 1437 1437 1437 1437 1436 1436 1435 1435
1434 1434 1435 1435 1436 1436 1437 1437 1438 1438 1439 1439 1439 1439 1439 1439 1439 1438 1438 1438 1438 1437 1437 1437 1437 1437 1437 1437 1437 1437 1436 1436 1436 1436 1436 1436 1435 1435 1435 1435 1435 1434 1434 1433
1431 1431 1432 1432 1433 1433 1434 1435 1435 1435 1436 1436 1436 1437 1437 1437 1437 1436 1436 1436 1436 1436 1436 1436 1436 1436 1436 1435 1435 1435 1435 1435 1435 1434 1434 1434 1434 1434 1433 1433 1433 1432 1432 1431
1428 1428 1429 1430 1430 1431 1431 1432 1433 1433 1434 1434 1434 1435 1435 1434 1434 1434 1434 1434 1434 1434 1434 1434 1434 1434 1434 1434 1434 1434 1434 1434 1433 1433 1433 1433 1432 1432 1432 1431 1431 1430 1430 1429
1426 1426 1427 1427 1428 1428 1429 1430 1430 1431 1431 1432 1432 1432 1432 1432 1432 1432 1432 1432 1432 1432 1432 1432 1433 1433 1433 1433 1433 1433 1433 1432 1432 1432 1431 1431 1431 1431 1430 1430 1429 1428 1428 1427
1423 1424 1424 1425 1426 1426 1427 1428 1428 1428 1429 1429 1429 1430 1430 1430 1430 1430 1430 1430 1430 1430 1430 1431 1431 1431 1431 1431 1431 1431 1431 1431 1431 1431 1430 1430 1430 1429 1429 1428 1427 1426 1426 1425
1420 1421 1422 1422 1423 1424 1425 1426 1426 1426 1427 1427 1427 1427 1427 1427 1427 1427 1428 1428 1428 1428 1429 1429 1429 1430 1430 1430 1430 1430 1430 1430 1430 1429 1429 1429 1428 1427 1427 1426 1425 1425 1424 1423